NOTE: This page is experimental. Bug reports to carter.barry@gmail.com. Query language is SQLite3.

Prepend rss. to the URL for an RSS feed, csv. to the URL for CSV output.

QUERY: SELECT station_id AS "Code", observation_time AS "Time (GMT)", ROUND(altim_in_hg,2) AS "Pressure (inches)", ROUND(temp_c*1.8+32, 1) AS "Temp. (F)", ROUND(wind_speed_kt*1.15077945) AS "Wind (mph)", (CASE WHEN wind_gust_kt THEN ROUND(wind_gust_kt*1.15077945) ELSE "NA" END) AS "Gust (mph)", DATETIME(observation_time,'-7 hours') AS "Time (MST)" FROM metar WHERE station_id='KABQ' ORDER BY observation_time DESC

To edit query (or if query above is munged), see textbox at bottom of page

Empty result may indicate error: I'm not sure why my error checking code isn't working.

Source code

Code Time (GMT) Pressure (inches) Temp. (F) Wind (mph) Gust (mph) Time (MST)
KABQ 2019-11-20T04:52:00Z 29.85 57.0 7.0 NA 2019-11-19 21:52:00
KABQ 2019-11-20T03:52:00Z 29.88 55.9 5.0 NA 2019-11-19 20:52:00
KABQ 2019-11-20T02:52:00Z 29.88 55.0 10.0 NA 2019-11-19 19:52:00
KABQ 2019-11-20T01:52:00Z 29.88 52.0 6.0 NA 2019-11-19 18:52:00
KABQ 2019-11-20T00:52:00Z 29.88 60.1 3.0 NA 2019-11-19 17:52:00
KABQ 2019-11-19T23:52:00Z 29.89 63.0 0.0 NA 2019-11-19 16:52:00
KABQ 2019-11-19T22:52:00Z 29.89 66.0 0.0 NA 2019-11-19 15:52:00
KABQ 2019-11-19T21:52:00Z 29.9 66.0 0.0 NA 2019-11-19 14:52:00
KABQ 2019-11-19T20:52:00Z 29.93 64.9 3.0 NA 2019-11-19 13:52:00
KABQ 2019-11-19T19:52:00Z 29.96 62.1 5.0 NA 2019-11-19 12:52:00
KABQ 2019-11-19T18:52:00Z 30.01 57.9 0.0 NA 2019-11-19 11:52:00
KABQ 2019-11-19T17:52:00Z 30.04 53.1 0.0 NA 2019-11-19 10:52:00
KABQ 2019-11-19T16:52:00Z 30.07 46.0 0.0 NA 2019-11-19 09:52:00
KABQ 2019-11-19T15:52:00Z 30.06 42.1 3.0 NA 2019-11-19 08:52:00
KABQ 2019-11-19T14:52:00Z 30.05 39.9 5.0 NA 2019-11-19 07:52:00
KABQ 2019-11-19T13:52:00Z 30.05 37.0 5.0 NA 2019-11-19 06:52:00
KABQ 2019-11-19T12:52:00Z 30.04 37.9 5.0 NA 2019-11-19 05:52:00
KABQ 2019-11-19T11:52:00Z 30.03 41.0 9.0 NA 2019-11-19 04:52:00
KABQ 2019-11-19T10:52:00Z 30.04 43.0 6.0 NA 2019-11-19 03:52:00
KABQ 2019-11-19T09:52:00Z 30.05 43.0 5.0 NA 2019-11-19 02:52:00
KABQ 2019-11-19T08:52:00Z 30.07 39.9 6.0 NA 2019-11-19 01:52:00
KABQ 2019-11-19T07:52:00Z 30.07 39.0 10.0 NA 2019-11-19 00:52:00
KABQ 2019-11-19T06:52:00Z 30.06 45.0 0.0 NA 2019-11-18 23:52:00
KABQ 2019-11-19T05:52:00Z 30.06 43.0 3.0 NA 2019-11-18 22:52:00

Enter query below (must start w/ SELECT):

Schema Raw SQLite3 db RSS feed for this query